EA5SW-13 Weather Reports


Display with metric or nautical units.
time (UTC)temp
F
wind
direction
speed
MPH
gust
MPH
rain 1hr
in
rain 24hr
in
rain mn
in
humidity
%
barometer
mb
20260509191826 63 0.0 0.0 0.00 0.53 0.53 79
20260509190911 64 0.0 0.0 0.00 0.53 0.53 74
20260509185827 64 0.0 0.0 0.00 0.53 0.53 74
20260509184851 64 0.0 0.0 0.00 0.53 0.53 73
20260509183827 65 0.0 0.0 0.00 0.53 0.53 73
20260509182851 65 0.0 0.0 0.00 0.53 0.53 72
20260509181827 65 0.0 0.0 0.00 0.53 0.53 71
20260509180851 66 0.0 0.0 0.00 0.53 0.53 70
20260509180043 67 0.0 0.0 0.00 0.53 0.53 67
20260509174911 69 0.0 0.0 0.00 0.53 0.53 64
20260509173827 70 0.0 0.0 0.00 0.53 0.53 64
20260509172911 71 0.0 0.0 0.00 0.53 0.53 61
20260509171827 73 0.0 0.0 0.00 0.53 0.53 55
20260509170939 75 0.0 1.0 0.00 0.53 0.53 54
20260509165827 74 0.0 0.0 0.00 0.53 0.53 55
20260509164851 75 0.0 0.0 0.00 0.53 0.53 54
20260509163827 76 0.0 0.0 0.00 0.53 0.53 55
20260509162939 75 0.0 1.0 0.00 0.53 0.53 58
20260509162023 73 0.0 0.0 0.00 0.53 0.53 60
20260509161203 73 0.0 0.0 0.00 0.53 0.53 58
20260509153827 72 0.0 0.0 0.00 0.53 0.53 68
20260509152851 71 0.0 0.0 0.00 0.53 0.53 65
20260509151827 72 0.0 0.0 0.00 0.53 0.53 71
20260509150852 68 0.0 1.0 0.00 0.53 0.53 72
20260509145908 67 0.0 0.0 0.00 0.53 0.53 73
20260509144851 67 0.0 0.0 0.00 0.53 0.53 73
20260509143827 68 0.0 1.0 0.00 0.53 0.53 73
20260509142852 68 0.0 1.0 0.00 0.53 0.53 74
20260509141827 68 0.0 1.0 0.00 0.53 0.53 76
20260509140911 68 0.0 1.0 0.00 0.53 0.53 84
20260509135827 66 0.0 1.0 0.00 0.53 0.53 91
20260509134911 64 0.0 1.0 0.00 0.53 0.53 95
20260509133827 63 0.0 1.0 0.01 0.53 0.53 98
20260509132851 62 0.0 0.0 0.02 0.53 0.53 98
20260509131827 62 0.0 0.0 0.04 0.53 0.53 98
20260509130851 61 0.0 1.0 0.04 0.53 0.53 97
20260509125827 61 0.0 0.0 0.06 0.53 0.53 97
20260509124851 61 0.0 0.0 0.07 0.53 0.53 97
20260509123828 60 0.0 0.0 0.08 0.52 0.52 97
20260509122851 60 0.0 0.0 0.08 0.51 0.51 96
20260509121828 60 0.0 0.0 0.08 0.50 0.50 96
20260509120851 60 0.0 0.0 0.09 0.50 0.50 95
20260509115828 60 0.0 0.0 0.07 0.47 0.47 95
20260509114851 60 0.0 0.0 0.08 0.46 0.46 94
20260509113828 60 0.0 0.0 0.08 0.44 0.44 94
20260509112852 60 0.0 0.0 0.09 0.43 0.43 94
20260509111827 61 0.0 1.0 0.09 0.41 0.41 94
20260509110852 60 0.0 0.0 0.09 0.40 0.40 93
20260509105651 60 0.0 0.0 0.12 0.40 0.40 93
20260509104627 60 0.0 0.0 0.12 0.38 0.38 93
20260509103652 60 0.0 1.0 0.12 0.35 0.35 93
20260509102628 60 0.0 0.0 0.12 0.33 0.33 92
20260509101652 60 0.0 1.0 0.13 0.32 0.32 92
20260509100628 60 0.0 1.0 0.14 0.31 0.31 92
20260509095712 60 0.0 1.0 0.15 0.28 0.28 91
20260509094628 60 0.0 1.0 0.14 0.26 0.26 91
20260509093652 60 0.0 0.0 0.15 0.24 0.24 90
20260509092648 60 0.0 1.0 0.17 0.21 0.21 90
20260509091651 60 0.0 1.0 0.17 0.19 0.19 89
20260509090628 60 0.0 1.0 0.15 0.17 0.17 88
20260509085740 61 0.0 1.0 0.13 0.13 0.13 86
20260509084628 61 0.0 0.0 0.12 0.12 0.12 85
20260509083652 61 0.0 0.0 0.08 0.08 0.08 84
20260509082628 62 0.0 0.0 0.05 0.05 0.05 83
20260509081712 62 0.0 1.0 0.02 0.02 0.02 82
20260509080628 62 0.0 0.0 0.01 0.01 0.01 82
20260509075652 62 0.0 1.0 0.00 0.00 0.00 81
20260509074627 62 0.0 0.0 0.00 0.00 0.00 81
20260509073652 62 0.0 0.0 0.00 0.00 0.00 80
20260509072627 62 0.0 0.0 0.00 0.00 0.00 80
20260509071652 63 0.0 0.0 0.00 0.00 0.00 80
20260509070628 63 0.0 0.0 0.00 0.00 0.00 80
20260509065712 63 0.0 0.0 0.00 0.00 0.00 80
20260509064628 63 0.0 0.0 0.00 0.00 0.00 80
20260509063652 63 0.0 1.0 0.00 0.00 0.00 80
20260509062628 63 0.0 1.0 0.00 0.00 0.00 80
20260509061711 62 0.0 2.0 0.00 0.00 0.00 81
20260509060628 62 180 1.0 2.0 0.00 0.00 0.00 81
20260509055652 62 0.0 1.0 0.00 0.00 0.00 81
20260509054628 62 0.0 0.0 0.00 0.00 0.00 81
20260509053652 62 0.0 0.0 0.00 0.00 0.00 81
20260509052628 62 0.0 1.0 0.00 0.00 0.00 81
20260509051652 62 0.0 2.0 0.00 0.00 0.00 81
20260509050708 62 180 1.0 2.0 0.00 0.00 0.00 81
20260509045428 62 0.0 0.0 0.00 0.00 0.00 81
20260509044452 62 0.0 1.0 0.00 0.00 0.00 82
20260509043428 62 0.0 0.0 0.00 0.00 0.00 82
20260509042512 62 0.0 1.0 0.00 0.00 0.00 81
20260509041429 62 0.0 0.0 0.00 0.00 0.00 80
20260509040452 63 0.0 1.0 0.00 0.00 0.00 80
20260509035252 63 0.0 1.0 0.00 0.00 0.00 78
20260509034228 63 0.0 1.0 0.00 0.00 0.00 78
20260509033252 63 0.0 1.0 0.00 0.00 0.00 77
20260509032228 63 0.0 1.0 0.00 0.00 0.00 77
20260509031252 63 0.0 0.0 0.00 0.00 0.00 76
20260509030228 63 0.0 1.0 0.00 0.00 0.00 76
20260509025828 63 0.0 0.0 0.00 0.00 0.00 75
20260509024912 63 0.0 1.0 0.00 0.00 0.00 75
20260509023828 63 0.0 1.0 0.00 0.00 0.00 75
20260509022852 63 0.0 1.0 0.00 0.00 0.00 76
20260509021828 63 0.0 1.0 0.00 0.00 0.00 76
20260509020852 63 0.0 1.0 0.00 0.00 0.00 77
20260509015828 63 0.0 1.0 0.00 0.00 0.00 78
20260509014852 63 0.0 0.0 0.00 0.00 0.00 80
20260509013828 62 0.0 1.0 0.00 0.00 0.00 80
20260509012852 62 0.0 1.0 0.00 0.00 0.00 80
20260509012004 63 0.0 1.0 0.00 0.00 0.00 80
20260509010316 63 0.0 1.0 0.00 0.00 0.00 80
20260509005340 63 0.0 1.0 0.00 0.00 0.00 80
20260509004055 63 0.0 1.0 0.00 0.00 0.00 80
20260509003604 63 0.0 1.0 0.00 0.00 0.00 81
20260509001028 63 0.0 0.0 0.00 0.00 0.00 81
20260508235828 63 0.0 0.0 0.00 0.00 0.00 81
20260508234852 63 0.0 0.0 0.00 0.00 0.00 81
20260508233653 63 0.0 1.0 0.00 0.00 0.00 81
20260508232452 63 0.0 1.0 0.00 0.00 0.00 81
20260508231428 63 0.0 0.0 0.00 0.00 0.00 81
20260508230452 64 0.0 1.0 0.00 0.00 0.00 77
20260508225429 64 0.0 1.0 0.00 0.00 0.00 76
20260508224452 64 0.0 1.0 0.00 0.00 0.00 76
20260508223428 64 0.0 0.0 0.00 0.00 0.00 76
20260508222452 64 0.0 1.0 0.00 0.00 0.00 76
20260508221430 64 0.0 0.0 0.00 0.00 0.00 76
20260508220454 0 0.0 0.0 0.00 0.00 0.00
20260508215428 64 0.0 0.0 0.00 0.00 0.00 76
20260508214540 64 0.0 0.0 0.00 0.00 0.00 76
20260508213429 64 0.0 0.0 0.00 0.00 0.00 75
20260508212452 64 0.0 0.0 0.00 0.00 0.00 75
20260508211429 64 0.0 0.0 0.00 0.00 0.00 75
20260508210452 64 0.0 0.0 0.00 0.00 0.00 75
20260508205428 64 0.0 0.0 0.00 0.00 0.00 74
20260508204453 64 0.0 0.0 0.00 0.00 0.00 74
20260508203429 64 0.0 0.0 0.00 0.00 0.00 74
20260508202453 64 0.0 1.0 0.00 0.00 0.00 74
20260508201429 65 0.0 0.0 0.00 0.00 0.00 74
20260508200452 0 0.0 0.0 0.00 0.00 0.00
20260508195253 65 0.0 1.0 0.00 0.00 0.00 73
20260508194228 65 0.0 0.0 0.00 0.00 0.00 72
20260508193253 65 0.0 0.0 0.00 0.00 0.00 72
20260508192310 66 0.0 0.0 0.00 0.00 0.00 71